Volver al catálogo

THORAD AGENA D DEB

ActivoLEO
NORAD 19422·DEBRIS·🇺🇸 United States

Lanzado Apr 8, 1970 desde Vandenberg Space Force Base

Loading…

Próximos Pases (próximas 24 horas)

TLE

ActualizadoSource: Space-Track

Época: Sep 14, 2026, 04:22 UTC

1 19422U 70025QA  26257.18252687  .00000244  00000-0  35105-3 0  9990
2 19422 100.0755 327.6705 0011233  73.2030 312.2131 13.66816003 58788

Sigue THORAD AGENA D DEB en tiempo real con AllMySat

Download on the App Store